Location: Asheville, NC
(35.6000°N, 82.5500°W)
Time: 22:46:14

STARS - Pass Details

Date: 09 March 2018
Orbit: 625 x 641 km, 98.3° (Epoch: 18 March)

Event Time Altitude Azimuth Distance (km) Brightness Sun altitude
Rises 05:48:32 0° 161° (SSE) 2,926 ? -13.2°
Reaches altitude 10° 05:50:44 10° 159° (SSE) 2,022 ? -12.7°
Maximum altitude 05:55:07 71° 75° (ENE) 680 ? -11.8°
Drops below altitude 10° 05:59:32 10° 352° (N) 2,035 ? -10.9°
Sets 06:01:45 0° 351° (N) 2,947 ? -10.5°
